• In Hungary
  • List of Countries
  • For 7 days
  • Water Temperature
  • Satellite Maps
  • Weather Map
  • News
  • Weather Widgets
  • user-avatar
    Login

    Hourly Weather Plaska

    Today, 14 December, Thursday

    Time Temperature Precipitation Wind Pressure Humidity
    00:00 -4°C° 0 mm 4 mps 744 mmHg 85%
    01:00 -4°C° 0 mm 4 mps 743 mmHg 83%
    02:00 -4°C° 0 mm 5 mps 742 mmHg 81%
    03:00 -4°C° 0 mm 5 mps 741 mmHg 80%
    04:00 -4°C° 0 mm 5 mps 740 mmHg 79%
    05:00 -4°C° 0 mm 6 mps 740 mmHg 78%
    06:00 -4°C° 0 mm 6 mps 739 mmHg 78%
    07:00 -4°C° 0 mm 6 mps 738 mmHg 78%
    08:00 -4°C° 0 mm 7 mps 737 mmHg 78%
    09:00 -3°C° 0 mm 7 mps 736 mmHg 77%
    10:00 -3°C° 0 mm 7 mps 736 mmHg 76%
    11:00 -2°C° 0 mm 8 mps 735 mmHg 75%
    12:00 -2°C° 0.1 mm 7 mps 734 mmHg 73%
    13:00 -2°C° 0.1 mm 7 mps 734 mmHg 72%
    14:00 -1°C° 0 mm 6 mps 733 mmHg 71%
    15:00 -1°C° 0.1 mm 6 mps 733 mmHg 73%
    16:00 -1°C° 0.1 mm 5 mps 733 mmHg 75%
    17:00 -1°C° 0.1 mm 5 mps 733 mmHg 77%
    18:00 0°C° 0.4 mm 5 mps 733 mmHg 77%
    19:00 0°C° 0.4 mm 5 mps 732 mmHg 78%
    20:00 0°C° 0.4 mm 5 mps 732 mmHg 78%
    21:00 0°C° 0.5 mm 5 mps 732 mmHg 81%
    22:00 -1°C° 0.5 mm 6 mps 733 mmHg 84%
    23:00 -1°C° 0.5 mm 6 mps 733 mmHg 87%

    Tomorrow, 15 December, Friday

    Time Temperature Precipitation Wind Pressure Humidity
    00:00 -1°C° 0.2 mm 6 mps 733 mmHg 87%
    01:00 -2°C° 0.2 mm 6 mps 733 mmHg 87%
    02:00 -2°C° 0.2 mm 6 mps 734 mmHg 87%
    03:00 -1°C° 0 mm 5 mps 734 mmHg 86%
    04:00 -1°C° 0 mm 5 mps 735 mmHg 85%
    05:00 -1°C° 0 mm 5 mps 735 mmHg 84%
    06:00 -1°C° 0.1 mm 5 mps 735 mmHg 85%
    07:00 -2°C° 0.1 mm 5 mps 735 mmHg 85%
    08:00 -2°C° 0.1 mm 5 mps 735 mmHg 85%
    09:00 -2°C° 0 mm 5 mps 736 mmHg 85%
    10:00 -1°C° 0 mm 4 mps 736 mmHg 84%
    11:00 -1°C° 0 mm 4 mps 736 mmHg 84%
    12:00 -1°C° 0 mm 4 mps 736 mmHg 85%
    13:00 0°C° 0 mm 3 mps 736 mmHg 86%
    14:00 0°C° 0 mm 3 mps 736 mmHg 87%
    15:00 0°C° 0 mm 3 mps 736 mmHg 89%
    16:00 -1°C° 0 mm 3 mps 736 mmHg 91%
    17:00 -1°C° 0 mm 2 mps 736 mmHg 93%
    18:00 -1°C° 0 mm 2 mps 736 mmHg 93%
    19:00 -1°C° 0 mm 2 mps 735 mmHg 94%
    20:00 -1°C° 0 mm 2 mps 735 mmHg 94%
    21:00 -1°C° 0.6 mm 2 mps 735 mmHg 95%
    22:00 -1°C° 0.6 mm 2 mps 734 mmHg 95%
    23:00 +1°C° 0.6 mm 1 mps 734 mmHg 96%

    Day after tomorrow, 16 December, Saturday

    Time Temperature Precipitation Wind Pressure Humidity
    00:00 -1°C° 0.3 mm 2 mps 734 mmHg 96%
    01:00 -1°C° 0.3 mm 2 mps 735 mmHg 96%
    02:00 -1°C° 0.3 mm 2 mps 735 mmHg 96%
    03:00 -1°C° 0.2 mm 2 mps 735 mmHg 96%
    04:00 -1°C° 0.2 mm 2 mps 735 mmHg 96%
    05:00 -1°C° 0.2 mm 3 mps 736 mmHg 96%
    06:00 -1°C° 0 mm 2 mps 736 mmHg 96%
    07:00 -1°C° 0 mm 2 mps 736 mmHg 96%
    08:00 -1°C° 0 mm 2 mps 736 mmHg 96%
    09:00 -1°C° 0 mm 2 mps 737 mmHg 95%
    10:00 -1°C° 0 mm 2 mps 737 mmHg 95%
    11:00 -1°C° 0 mm 2 mps 738 mmHg 94%
    12:00 -1°C° 0 mm 2 mps 738 mmHg 94%
    13:00 -1°C° 0 mm 2 mps 738 mmHg 94%
    14:00 -1°C° 0 mm 2 mps 738 mmHg 94%
    15:00 -1°C° 0.1 mm 2 mps 739 mmHg 94%
    16:00 -1°C° 0.1 mm 3 mps 739 mmHg 94%
    17:00 -2°C° 0.1 mm 3 mps 739 mmHg 94%
    18:00 -2°C° 0 mm 3 mps 740 mmHg 93%
    19:00 -2°C° 0 mm 3 mps 740 mmHg 92%
    20:00 -3°C° 0 mm 4 mps 741 mmHg 91%
    21:00 -2°C° 0 mm 3 mps 741 mmHg 90%
    22:00 -1°C° 0 mm 3 mps 742 mmHg 90%
    23:00 -1°C° 0 mm 3 mps 742 mmHg 89%

    17 December, Sunday

    Time Temperature Precipitation Wind Pressure Humidity
    00:00 -2°C° 0 mm 3 mps 742 mmHg 90%
    01:00 -2°C° 0 mm 3 mps 743 mmHg 91%
    02:00 -2°C° 0 mm 3 mps 743 mmHg 92%
    03:00 -2°C° 0 mm 3 mps 743 mmHg 91%
    04:00 -2°C° 0 mm 3 mps 744 mmHg 91%
    05:00 -2°C° 0 mm 3 mps 744 mmHg 90%
    06:00 -2°C° 0 mm 2 mps 744 mmHg 90%
    07:00 -2°C° 0 mm 2 mps 745 mmHg 90%
    08:00 -3°C° 0 mm 2 mps 745 mmHg 90%
    09:00 -2°C° 0 mm 2 mps 745 mmHg 89%
    10:00 -2°C° 0 mm 2 mps 746 mmHg 89%
    11:00 -2°C° 0 mm 3 mps 746 mmHg 89%
    12:00 -1°C° 0 mm 2 mps 746 mmHg 88%
    13:00 -1°C° 0 mm 2 mps 746 mmHg 88%
    14:00 -1°C° 0 mm 2 mps 747 mmHg 87%
    15:00 -2°C° 0 mm 2 mps 747 mmHg 88%
    16:00 -2°C° 0 mm 2 mps 747 mmHg 90%
    17:00 -1°C° 0 mm 1 mps 747 mmHg 91%
    18:00 -1°C° 0 mm 1 mps 747 mmHg 91%
    19:00 -1°C° 0 mm 1 mps 747 mmHg 91%
    20:00 -2°C° 0 mm 1 mps 748 mmHg 92%
    21:00 -2°C° 0 mm 1 mps 748 mmHg 92%
    22:00 -2°C° 0 mm 1 mps 748 mmHg 92%
    23:00 -2°C° 0 mm 1 mps 748 mmHg 92%

    18 December, Monday

    Time Temperature Precipitation Wind Pressure Humidity
    00:00 -3°C° 0 mm 0 mps 748 mmHg 92%
    01:00 -3°C° 0 mm 0 mps 748 mmHg 93%
    02:00 -3°C° 0 mm 0 mps 748 mmHg 93%
    03:00 -4°C° 0 mm 0 mps 748 mmHg 93%
    04:00 -4°C° 0 mm 0 mps 748 mmHg 93%
    05:00 -3°C° 0 mm 1 mps 748 mmHg 93%
    06:00 -4°C° 0 mm 0 mps 748 mmHg 93%
    07:00 -4°C° 0 mm 0 mps 748 mmHg 93%
    08:00 -4°C° 0 mm 0 mps 749 mmHg 93%
    09:00 -4°C° 0 mm 0 mps 749 mmHg 92%
    10:00 -3°C° 0 mm 0 mps 749 mmHg 91%
    11:00 -3°C° 0 mm 0 mps 750 mmHg 89%
    12:00 -2°C° 0 mm 0 mps 750 mmHg 89%
    13:00 -1°C° 0 mm 1 mps 750 mmHg 88%
    14:00 -1°C° 0 mm 1 mps 750 mmHg 87%
    15:00 -1°C° 0 mm 1 mps 750 mmHg 87%
    16:00 -1°C° 0 mm 1 mps 751 mmHg 88%
    17:00 -2°C° 0 mm 1 mps 751 mmHg 89%
    18:00 -2°C° 0 mm 1 mps 752 mmHg 88%
    19:00 -4°C° 0 mm 2 mps 752 mmHg 88%
    20:00 -4°C° 0 mm 2 mps 753 mmHg 87%
    21:00 -5°C° 0 mm 2 mps 753 mmHg 87%
    22:00 -5°C° 0 mm 2 mps 753 mmHg 87%
    23:00 -5°C° 0 mm 2 mps 754 mmHg 87%

    19 December, Tuesday

    Time Temperature Precipitation Wind Pressure Humidity
    00:00 -5°C° 0 mm 2 mps 754 mmHg 87%
    01:00 -5°C° 0 mm 2 mps 754 mmHg 87%
    02:00 -5°C° 0 mm 2 mps 755 mmHg 87%
    03:00 -5°C° 0 mm 2 mps 755 mmHg 89%
    04:00 -5°C° 0 mm 2 mps 755 mmHg 90%
    05:00 -5°C° 0 mm 2 mps 755 mmHg 92%
    06:00 -5°C° 0 mm 2 mps 756 mmHg 92%
    07:00 -5°C° 0 mm 2 mps 756 mmHg 93%
    08:00 -5°C° 0 mm 2 mps 757 mmHg 93%
    09:00 -5°C° 0 mm 2 mps 757 mmHg 92%
    10:00 -4°C° 0 mm 2 mps 757 mmHg 92%
    11:00 -4°C° 0 mm 2 mps 758 mmHg 91%
    12:00 -4°C° 0 mm 2 mps 758 mmHg 89%
    13:00 -3°C° 0 mm 2 mps 758 mmHg 88%
    14:00 -3°C° 0 mm 2 mps 758 mmHg 86%
    15:00 -3°C° 0 mm 2 mps 758 mmHg 87%
    16:00 -3°C° 0 mm 2 mps 758 mmHg 88%
    17:00 -3°C° 0 mm 2 mps 758 mmHg 88%
    18:00 -3°C° 0 mm 2 mps 758 mmHg 89%
    19:00 -3°C° 0 mm 2 mps 759 mmHg 91%
    20:00 -3°C° 0 mm 2 mps 759 mmHg 92%
    21:00 -3°C° 0.1 mm 2 mps 759 mmHg 92%
    22:00 -3°C° 0.1 mm 2 mps 759 mmHg 93%
    23:00 -3°C° 0.1 mm 2 mps 759 mmHg 94%
    Show more